Time,TemperatureF,DewpointF,PressureIn,WindDirection,WindDirectionDegrees,WindSpeedMPH,WindSpeedGustMPH,Humidity,HourlyPrecipIn,Conditions,Clouds,dailyrainin,SolarRadiationWatts/m^2,SoftwareType,DateUTC
2013-02-22 00:09:00,24.9,15.0,30.26,NW,309,3.0,-999.0,66,-99.99,,,0.00,0,weatherlink.com 1.10,2013-02-22 05:09:00,
2013-02-22 00:24:00,24.8,15.0,30.25,NNW,333,8.0,-999.0,66,-99.99,,,0.00,0,weatherlink.com 1.10,2013-02-22 05:24:00,
2013-02-22 00:38:00,24.8,15.0,30.26,NW,323,1.0,-999.0,67,-99.99,,,0.00,0,weatherlink.com 1.10,2013-02-22 05:38:00,
2013-02-22 00:53:00,24.9,15.0,30.27,North,5,1.0,-999.0,67,-99.99,,,0.00,0,weatherlink.com 1.10,2013-02-22 05:53:00,
2013-02-22 01:08:00,25.0,15.0,30.27,NNW,348,5.0,-999.0,67,-99.99,,,0.00,0,weatherlink.com 1.10,2013-02-22 06:08:00,
2013-02-22 01:23:00,24.9,15.0,30.25,North,349,1.0,-999.0,67,-99.99,,,0.00,0,weatherlink.com 1.10,2013-02-22 06:23:00,
2013-02-22 01:38:00,24.9,15.0,30.27,North,355,1.0,-999.0,67,-99.99,,,0.00,0,weatherlink.com 1.10,2013-02-22 06:38:00,
2013-02-22 01:54:00,25.0,16.0,30.26,NNW,338,8.0,-999.0,68,-99.99,,,0.00,0,weatherlink.com 1.10,2013-02-22 06:54:00,
2013-02-22 02:09:00,25.0,16.0,30.30,WNW,284,2.0,-999.0,68,-99.99,,,0.00,0,weatherlink.com 1.10,2013-02-22 07:09:00,
2013-02-22 02:24:00,24.9,16.0,30.30,WNW,298,6.0,-999.0,68,-99.99,,,0.00,0,weatherlink.com 1.10,2013-02-22 07:24:00,
2013-02-22 02:39:00,24.8,16.0,30.30,WNW,299,1.0,-999.0,69,-99.99,,,0.00,0,weatherlink.com 1.10,2013-02-22 07:39:00,
2013-02-22 02:54:00,24.6,16.0,30.30,NNE,13,0.0,-999.0,69,-99.99,,,0.00,0,weatherlink.com 1.10,2013-02-22 07:54:00,
2013-02-22 03:09:00,24.6,16.0,30.30,NW,319,0.0,-999.0,69,-99.99,,,0.00,0,weatherlink.com 1.10,2013-02-22 08:09:00,
2013-02-22 03:24:00,24.6,16.0,30.29,North,360,1.0,-999.0,70,-99.99,,,0.00,0,weatherlink.com 1.10,2013-02-22 08:24:00,
2013-02-22 03:39:00,24.7,16.0,30.30,North,360,2.0,-999.0,70,-99.99,,,0.00,0,weatherlink.com 1.10,2013-02-22 08:39:00,
2013-02-22 03:54:00,24.7,16.0,30.30,NW,323,1.0,-999.0,70,-99.99,,,0.00,0,weatherlink.com 1.10,2013-02-22 08:54:00,
2013-02-22 04:09:00,24.7,16.0,30.32,NW,323,2.0,-999.0,70,-99.99,,,0.00,0,weatherlink.com 1.10,2013-02-22 09:09:00,
2013-02-22 04:24:00,24.4,16.0,30.32,NW,308,1.0,-999.0,71,-99.99,,,0.00,0,weatherlink.com 1.10,2013-02-22 09:24:00,
2013-02-22 04:39:00,24.2,16.0,30.32,NW,309,1.0,-999.0,72,-99.99,,,0.00,0,weatherlink.com 1.10,2013-02-22 09:39:00,
2013-02-22 04:54:00,24.0,17.0,30.31,NW,309,1.0,-999.0,73,-99.99,,,0.00,0,weatherlink.com 1.10,2013-02-22 09:54:00,
2013-02-22 05:09:00,24.0,17.0,30.31,NW,309,1.0,-999.0,73,-99.99,,,0.00,0,weatherlink.com 1.10,2013-02-22 10:09:00,
2013-02-22 05:24:00,24.5,17.0,30.32,NW,311,0.0,-999.0,74,-99.99,,,0.00,0,weatherlink.com 1.10,2013-02-22 10:24:00,
2013-02-22 05:39:00,24.8,17.0,30.35,WNW,287,3.0,-999.0,73,-99.99,,,0.00,0,weatherlink.com 1.10,2013-02-22 10:39:00,
2013-02-22 05:54:00,24.5,17.0,30.35,WNW,296,1.0,-999.0,74,-99.99,,,0.00,0,weatherlink.com 1.10,2013-02-22 10:54:00,
2013-02-22 06:09:00,24.3,17.0,30.36,WNW,296,1.0,-999.0,74,-99.99,,,0.00,0,weatherlink.com 1.10,2013-02-22 11:09:00,
2013-02-22 06:24:00,24.3,17.0,30.37,WNW,296,3.0,-999.0,75,-99.99,,,0.00,0,weatherlink.com 1.10,2013-02-22 11:24:00,
2013-02-22 06:39:00,24.4,18.0,30.37,NW,304,2.0,-999.0,75,-99.99,,,0.00,5,weatherlink.com 1.10,2013-02-22 11:39:00,
2013-02-22 06:54:00,24.4,18.0,30.37,NW,306,0.0,-999.0,75,-99.99,,,0.00,9,weatherlink.com 1.10,2013-02-22 11:54:00,
2013-02-22 07:09:00,24.5,18.0,30.37,NW,306,2.0,-999.0,75,-99.99,,,0.00,25,weatherlink.com 1.10,2013-02-22 12:09:00,
2013-02-22 07:24:00,24.9,18.0,30.37,NW,306,0.0,-999.0,75,-99.99,,,0.00,47,weatherlink.com 1.10,2013-02-22 12:24:00,
2013-02-22 07:39:00,25.4,19.0,30.38,NNW,337,0.0,-999.0,75,-99.99,,,0.00,74,weatherlink.com 1.10,2013-02-22 12:39:00,
2013-02-22 07:54:00,26.2,19.0,30.38,NNW,337,0.0,-999.0,74,-99.99,,,0.00,107,weatherlink.com 1.10,2013-02-22 12:54:00,
2013-02-22 08:10:00,27.2,20.0,30.39,NNW,348,2.0,-999.0,74,-99.99,,,0.00,130,weatherlink.com 1.10,2013-02-22 13:10:00,
2013-02-22 08:24:00,28.3,20.0,30.38,NNE,26,1.0,-999.0,72,-99.99,,,0.00,127,weatherlink.com 1.10,2013-02-22 13:24:00,
2013-02-22 08:40:00,29.0,21.0,30.38,North,11,2.0,-999.0,71,-99.99,,,0.00,121,weatherlink.com 1.10,2013-02-22 13:40:00,
2013-02-22 08:55:00,29.8,21.0,30.39,North,11,3.0,-999.0,70,-99.99,,,0.00,144,weatherlink.com 1.10,2013-02-22 13:55:00,
2013-02-22 09:10:00,30.4,21.0,30.38,NNE,24,3.0,-999.0,69,-99.99,,,0.00,192,weatherlink.com 1.10,2013-02-22 14:10:00,
2013-02-22 09:25:00,31.0,22.0,30.38,NW,323,3.0,-999.0,68,-99.99,,,0.00,269,weatherlink.com 1.10,2013-02-22 14:25:00,
2013-02-22 09:40:00,32.2,22.0,30.37,NE,38,4.0,-999.0,66,-99.99,,,0.00,281,weatherlink.com 1.10,2013-02-22 14:40:00,
2013-02-22 09:55:00,32.6,22.0,30.37,NE,53,3.0,-999.0,65,-99.99,,,0.00,174,weatherlink.com 1.10,2013-02-22 14:55:00,
2013-02-22 10:10:00,32.4,22.0,30.37,ENE,76,0.0,-999.0,65,-99.99,,,0.00,207,weatherlink.com 1.10,2013-02-22 15:10:00,
2013-02-22 10:25:00,33.3,23.0,30.37,NNE,29,2.0,-999.0,65,-99.99,,,0.00,517,weatherlink.com 1.10,2013-02-22 15:25:00,
2013-02-22 10:40:00,34.0,22.0,30.36,NE,51,3.0,-999.0,63,-99.99,,,0.00,302,weatherlink.com 1.10,2013-02-22 15:40:00,
2013-02-22 10:55:00,34.5,23.0,30.37,East,82,2.0,-999.0,62,-99.99,,,0.00,350,weatherlink.com 1.10,2013-02-22 15:55:00,
2013-02-22 11:10:00,35.0,23.0,30.36,NNE,28,0.0,-999.0,62,-99.99,,,0.00,323,weatherlink.com 1.10,2013-02-22 16:10:00,
2013-02-22 11:25:00,35.6,23.0,30.37,NE,44,2.0,-999.0,61,-99.99,,,0.00,297,weatherlink.com 1.10,2013-02-22 16:25:00,
2013-02-22 11:41:00,35.6,23.0,30.36,ENE,74,1.0,-999.0,60,-99.99,,,0.00,220,weatherlink.com 1.10,2013-02-22 16:41:00,
2013-02-22 12:10:00,36.9,23.0,30.35,ENE,62,1.0,-999.0,58,-99.99,,,0.00,367,weatherlink.com 1.10,2013-02-22 17:10:00,
2013-02-22 12:25:00,37.3,24.0,30.34,ENE,63,3.0,-999.0,58,-99.99,,,0.00,301,weatherlink.com 1.10,2013-02-22 17:25:00,
2013-02-22 12:40:00,37.3,24.0,30.34,East,92,0.0,-999.0,58,-99.99,,,0.00,246,weatherlink.com 1.10,2013-02-22 17:40:00,
2013-02-22 12:55:00,36.9,23.0,30.33,East,100,2.0,-999.0,58,-99.99,,,0.00,320,weatherlink.com 1.10,2013-02-22 17:55:00,
2013-02-22 13:10:00,37.8,24.0,30.32,NE,52,1.0,-999.0,58,-99.99,,,0.00,408,weatherlink.com 1.10,2013-02-22 18:10:00,
2013-02-22 13:25:00,37.8,24.0,30.30,SE,124,5.0,-999.0,58,-99.99,,,0.00,332,weatherlink.com 1.10,2013-02-22 18:25:00,
2013-02-22 13:41:00,37.4,24.0,30.31,ESE,109,4.0,-999.0,58,-99.99,,,0.00,229,weatherlink.com 1.10,2013-02-22 18:41:00,
2013-02-22 13:56:00,37.0,24.0,30.30,SSE,153,2.0,-999.0,60,-99.99,,,0.00,162,weatherlink.com 1.10,2013-02-22 18:56:00,
2013-02-22 14:11:00,36.6,25.0,30.30,ESE,117,2.0,-999.0,62,-99.99,,,0.00,174,weatherlink.com 1.10,2013-02-22 19:11:00,
2013-02-22 14:26:00,36.2,25.0,30.30,ESE,121,7.0,-999.0,64,-99.99,,,0.00,223,weatherlink.com 1.10,2013-02-22 19:26:00,
2013-02-22 14:41:00,36.5,25.0,30.29,East,101,4.0,-999.0,64,-99.99,,,0.00,172,weatherlink.com 1.10,2013-02-22 19:41:00,
2013-02-22 14:56:00,36.5,25.0,30.29,ESE,121,4.0,-999.0,64,-99.99,,,0.00,146,weatherlink.com 1.10,2013-02-22 19:56:00,
2013-02-22 15:11:00,36.2,26.0,30.30,ESE,109,4.0,-999.0,66,-99.99,,,0.00,146,weatherlink.com 1.10,2013-02-22 20:11:00,
2013-02-22 15:26:00,36.2,26.0,30.30,ESE,121,7.0,-999.0,67,-99.99,,,0.00,128,weatherlink.com 1.10,2013-02-22 20:26:00,
2013-02-22 15:41:00,35.9,27.0,30.30,SE,138,7.0,-999.0,70,-99.99,,,0.00,63,weatherlink.com 1.10,2013-02-22 20:41:00,
2013-02-22 15:56:00,35.4,27.0,30.31,South,173,4.0,-999.0,71,-99.99,,,0.00,62,weatherlink.com 1.10,2013-02-22 20:56:00,
2013-02-22 16:11:00,35.3,27.0,30.31,ESE,120,2.0,-999.0,72,-99.99,,,0.00,30,weatherlink.com 1.10,2013-02-22 21:11:00,
2013-02-22 16:26:00,35.1,27.0,30.31,SE,135,4.0,-999.0,72,-99.99,,,0.00,39,weatherlink.com 1.10,2013-02-22 21:26:00,
2013-02-22 16:41:00,35.0,28.0,30.30,ESE,116,2.0,-999.0,74,-99.99,,,0.00,28,weatherlink.com 1.10,2013-02-22 21:41:00,
2013-02-22 16:56:00,35.0,28.0,30.31,SE,132,4.0,-999.0,75,-99.99,,,0.00,21,weatherlink.com 1.10,2013-02-22 21:56:00,
2013-02-22 17:11:00,35.0,28.0,30.31,ESE,120,2.0,-999.0,75,-99.99,,,0.00,9,weatherlink.com 1.10,2013-02-22 22:11:00,
2013-02-22 17:26:00,34.9,28.0,30.31,SSE,153,1.0,-999.0,77,-99.99,,,0.00,0,weatherlink.com 1.10,2013-02-22 22:26:00,
2013-02-22 17:41:00,34.9,28.0,30.31,SE,135,0.0,-999.0,77,-99.99,,,0.00,0,weatherlink.com 1.10,2013-02-22 22:41:00,
2013-02-22 17:56:00,34.9,28.0,30.30,ESE,113,0.0,-999.0,77,-99.99,,,0.00,0,weatherlink.com 1.10,2013-02-22 22:56:00,
2013-02-22 18:11:00,34.9,28.0,30.30,SE,130,4.0,-999.0,77,-99.99,,,0.00,0,weatherlink.com 1.10,2013-02-22 23:11:00,
2013-02-22 18:26:00,35.0,29.0,30.30,SE,137,0.0,-999.0,78,-99.99,,,0.00,0,weatherlink.com 1.10,2013-02-22 23:26:00,
2013-02-22 18:41:00,35.1,29.0,30.29,SE,138,0.0,-999.0,78,-99.99,,,0.00,0,weatherlink.com 1.10,2013-02-22 23:41:00,
2013-02-22 18:56:00,35.1,29.0,30.30,SE,138,0.0,-999.0,78,-99.99,,,0.00,0,weatherlink.com 1.10,2013-02-22 23:56:00,
2013-02-22 19:11:00,35.2,29.0,30.30,SE,137,0.0,-999.0,79,-99.99,,,0.00,0,weatherlink.com 1.10,2013-02-23 00:11:00,
2013-02-22 19:26:00,35.3,29.0,30.30,SE,137,0.0,-999.0,79,-99.99,,,0.00,0,weatherlink.com 1.10,2013-02-23 00:26:00,
2013-02-22 19:41:00,35.5,30.0,30.30,SE,137,0.0,-999.0,80,-99.99,,,0.00,0,weatherlink.com 1.10,2013-02-23 00:41:00,
2013-02-22 19:56:00,35.6,30.0,30.31,SE,137,1.0,-999.0,81,-99.99,,,0.00,0,weatherlink.com 1.10,2013-02-23 00:56:00,
2013-02-22 20:11:00,35.8,31.0,30.30,SE,137,0.0,-999.0,81,-99.99,,,0.00,0,weatherlink.com 1.10,2013-02-23 01:11:00,
2013-02-22 20:26:00,36.0,31.0,30.29,SE,136,2.0,-999.0,81,-99.99,,,0.00,0,weatherlink.com 1.10,2013-02-23 01:26:00,
2013-02-22 20:41:00,36.2,31.0,30.29,SE,136,0.0,-999.0,81,-99.99,,,0.00,0,weatherlink.com 1.10,2013-02-23 01:41:00,
2013-02-22 20:56:00,36.4,31.0,30.29,SE,139,4.0,-999.0,82,-99.99,,,0.00,0,weatherlink.com 1.10,2013-02-23 01:56:00,
2013-02-22 21:11:00,36.7,32.0,30.28,SE,136,1.0,-999.0,82,-99.99,,,0.00,0,weatherlink.com 1.10,2013-02-23 02:11:00,
2013-02-22 21:26:00,36.8,32.0,30.27,SE,135,1.0,-999.0,82,-99.99,,,0.00,0,weatherlink.com 1.10,2013-02-23 02:26:00,
2013-02-22 21:41:00,36.9,32.0,30.27,SE,135,1.0,-999.0,82,-99.99,,,0.00,0,weatherlink.com 1.10,2013-02-23 02:41:00,
2013-02-22 21:56:00,37.0,32.0,30.27,SE,135,0.0,-999.0,82,-99.99,,,0.00,0,weatherlink.com 1.10,2013-02-23 02:56:00,
2013-02-22 22:11:00,37.2,32.0,30.27,ESE,119,0.0,-999.0,82,-99.99,,,0.00,0,weatherlink.com 1.10,2013-02-23 03:11:00,
2013-02-22 22:26:00,37.3,33.0,30.27,ESE,117,2.0,-999.0,83,-99.99,,,0.00,0,weatherlink.com 1.10,2013-02-23 03:26:00,
2013-02-22 22:40:00,37.3,33.0,30.27,ESE,107,1.0,-999.0,83,-99.99,,,0.00,0,weatherlink.com 1.10,2013-02-23 03:40:00,
2013-02-22 22:56:00,37.4,33.0,30.26,East,97,0.0,-999.0,83,-99.99,,,0.00,0,weatherlink.com 1.10,2013-02-23 03:56:00,
2013-02-22 23:10:00,37.5,33.0,30.26,East,97,0.0,-999.0,83,-99.99,,,0.00,0,weatherlink.com 1.10,2013-02-23 04:10:00,
2013-02-22 23:26:00,37.7,33.0,30.24,East,97,1.0,-999.0,83,-99.99,,,0.00,0,weatherlink.com 1.10,2013-02-23 04:26:00,
2013-02-22 23:40:00,37.7,33.0,30.24,East,97,1.0,-999.0,83,-99.99,,,0.00,0,weatherlink.com 1.10,2013-02-23 04:40:00,
2013-02-22 23:56:00,37.8,33.0,30.24,East,97,0.0,-999.0,84,-99.99,,,0.00,0,weatherlink.com 1.10,2013-02-23 04:56:00,